CW0529 Weather Reports


time (UTC)temp
C
wind
direction
speed
KPH
gust
KPH
rain 1hr
cm
rain 24hr
cm
rain mn
cm
humidity
%
barometer
mb
20260504041834 10 182 0.0 0.0 0.00 0.03 0.03 80 1038.6
20260504041330 10 182 0.0 0.0 0.00 0.03 0.03 80 1038.6
20260504040826 10 182 0.0 0.0 0.00 0.03 0.03 79 1038.5
20260504040324 10 182 0.0 0.0 0.00 0.03 0.03 78 1038.3
20260504035814 11 179 0.0 0.0 0.00 0.03 0.03 76 1038.2
20260504035312 11 172 0.0 1.6 0.00 0.03 0.03 74 1038.1
20260504034809 12 189 0.0 0.0 0.00 0.03 0.03 73 1038.3
20260504034307 12 186 0.0 0.0 0.00 0.03 0.03 73 1038.2
20260504033804 12 188 0.0 1.6 0.00 0.03 0.03 73 1038.3
20260504033301 12 187 0.0 0.0 0.00 0.03 0.03 74 1038.1
20260504032757 12 176 1.6 4.8 0.00 0.03 0.03 75 1038.3
20260504032255 12 149 1.6 3.2 0.00 0.03 0.03 76 1037.8
20260504031752 11 173 3.2 3.2 0.00 0.03 0.03 78 1038.2
20260504031249 10 186 0.0 1.6 0.00 0.03 0.03 79 1038.6
20260504030745 10 178 0.0 0.0 0.00 0.03 0.03 78 1038.6
20260504030242 10 178 0.0 0.0 0.00 0.03 0.03 77 1038.5
20260504025738 10 178 0.0 0.0 0.00 0.03 0.03 76 1038.6
20260504025236 10 178 0.0 0.0 0.00 0.03 0.03 75 1038.9
20260504024732 10 178 0.0 0.0 0.00 0.03 0.03 74 1038.8
20260504024229 10 178 0.0 0.0 0.00 0.03 0.03 74 1039.1
20260504023726 10 179 0.0 0.0 0.00 0.03 0.03 73 1038.8
20260504023221 11 179 0.0 0.0 0.00 0.03 0.03 73 1038.9
20260504022718 11 178 0.0 0.0 0.00 0.03 0.03 72 1038.9
20260504022214 11 178 0.0 0.0 0.00 0.03 0.03 71 1038.8
20260504021712 11 178 0.0 0.0 0.00 0.03 0.03 71 1038.8
20260504021209 11 178 0.0 0.0 0.00 0.03 0.03 70 1038.7
20260504020706 11 178 0.0 0.0 0.00 0.03 0.03 70 1038.6
20260504020202 11 178 0.0 0.0 0.00 0.03 0.03 69 1038.6
20260504015659 11 179 0.0 0.0 0.00 0.03 0.03 67 1038.3
20260504015155 12 178 0.0 0.0 0.00 0.03 0.03 66 1038.4
20260504014650 12 178 0.0 0.0 0.00 0.03 0.03 65 1038.5
20260504014148 12 177 0.0 0.0 0.00 0.03 0.03 65 1038.3
20260504013645 13 181 0.0 0.0 0.00 0.03 0.03 63 1038.2
20260504013142 13 181 0.0 0.0 0.00 0.03 0.03 62 1037.8
20260504012639 13 182 0.0 0.0 0.00 0.03 0.03 61 1037.9
20260504012137 13 189 0.0 0.0 0.00 0.03 0.03 59 1038.2
20260504011634 14 189 0.0 0.0 0.00 0.03 0.03 58 1038.1
20260504011130 14 187 0.0 0.0 0.00 0.03 0.03 58 1037.9
20260504010626 15 183 0.0 0.0 0.00 0.03 0.03 58 1038.0
20260504010122 15 183 0.0 1.6 0.00 0.03 0.03 56 1037.8
20260504005619 15 182 0.0 1.6 0.00 0.03 0.03 56 1038.0
20260504005116 15 181 0.0 1.6 0.00 0.03 0.03 55 1037.7
20260504004614 16 179 0.0 1.6 0.00 0.03 0.03 55 1037.6
20260504004111 16 181 1.6 1.6 0.00 0.03 0.03 54 1037.6
20260504003607 16 182 0.0 0.0 0.00 0.03 0.03 53 1037.9
20260504003104 16 183 0.0 1.6 0.00 0.03 0.03 53 1038.0
20260504002601 16 182 0.0 1.6 0.00 0.03 0.03 52 1037.8
20260504002058 16 189 0.0 0.0 0.00 0.03 0.03 50 1037.9
20260504001556 17 185 0.0 1.6 0.00 0.03 0.03 50 1038.0
20260504001051 17 186 0.0 0.0 0.00 0.03 0.03 49 1038.0
20260504000549 17 183 0.0 1.6 0.00 0.03 0.03 48 1037.9
20260504000046 18 179 1.6 4.8 0.00 0.03 0.03 46 1038.0
20260503235545 18 175 0.0 3.2 0.00 0.03 0.03 45 1038.2
20260503235041 18 190 1.6 3.2 0.00 0.03 0.03 45 1038.0
20260503234538 18 177 1.6 3.2 0.00 0.03 0.03 44 1038.4
20260503234037 18 189 1.6 4.8 0.00 0.03 0.03 44 1038.4
20260503233533 18 184 3.2 4.8 0.00 0.03 0.03 43 1038.2
20260503233029 19 188 4.8 8.0 0.00 0.03 0.03 42 1038.4
20260503232526 19 177 1.6 3.2 0.00 0.03 0.03 42 1038.6
20260503232024 20 168 3.2 8.0 0.00 0.03 0.03 42 1038.6
20260503231521 20 190 1.6 8.0 0.00 0.03 0.03 40 1038.8
20260503231018 20 206 6.4 9.7 0.00 0.03 0.03 40 1038.8
20260503230514 20 217 3.2 4.8 0.00 0.03 0.03 40 1038.8
20260503230012 20 149 3.2 9.7 0.00 0.03 0.03 41 1038.9
20260503225509 20 126 4.8 9.7 0.00 0.03 0.03 39 1039.1
20260503225004 20 193 1.6 8.0 0.00 0.03 0.03 42 1039.1
20260503224502 20 244 6.4 9.7 0.00 0.03 0.03 40 1039.0
20260503223959 20 181 0.0 11.3 0.00 0.03 0.03 40 1039.3
20260503223457 20 162 1.6 9.7 0.00 0.03 0.03 40 1039.2
20260503222952 20 233 8.0 11.3 0.00 0.03 0.03 39 1039.3
20260503222451 20 141 1.6 9.7 0.00 0.03 0.03 41 1039.2
20260503221948 20 168 3.2 9.7 0.00 0.03 0.03 41 1039.1
20260503221447 20 169 4.8 8.0 0.00 0.03 0.03 40 1039.2
20260503220943 21 176 0.0 3.2 0.00 0.03 0.03 42 1039.3
20260503220439 20 230 4.8 4.8 0.00 0.03 0.03 39 1039.5
20260503215937 20 183 3.2 9.7 0.00 0.03 0.03 40 1039.6
20260503215433 20 180 1.6 3.2 0.00 0.03 0.03 39 1039.7
20260503214931 20 200 1.6 4.8 0.00 0.03 0.03 38 1039.6
20260503214429 20 176 1.6 9.7 0.00 0.03 0.03 40 1040.0
20260503213926 20 196 6.4 11.3 0.00 0.03 0.03 38 1039.9
20260503213424 20 285 3.2 9.7 0.00 0.03 0.03 40 1040.0
20260503212920 20 223 4.8 9.7 0.00 0.03 0.03 39 1040.1
20260503212418 21 154 3.2 9.7 0.00 0.03 0.03 39 1040.0
20260503211915 20 209 3.2 4.8 0.00 0.03 0.03 39 1040.3
20260503211411 20 190 1.6 8.0 0.00 0.03 0.03 41 1040.3
20260503210907 20 195 4.8 8.0 0.00 0.03 0.03 40 1040.5
20260503210404 20 138 8.0 12.9 0.00 0.03 0.03 39 1040.4
20260503205859 20 158 4.8 9.7 0.00 0.03 0.03 40 1040.6
20260503205356 20 123 4.8 9.7 0.00 0.03 0.03 37 1040.7
20260503204852 20 189 4.8 4.8 0.00 0.03 0.03 39 1040.8
20260503204349 20 191 4.8 11.3 0.00 0.03 0.03 38 1040.7
20260503203847 20 206 3.2 4.8 0.00 0.03 0.03 40 1040.8
20260503203344 20 170 6.4 9.7 0.00 0.03 0.03 39 1040.8
20260503202841 20 219 8.0 11.3 0.00 0.03 0.03 39 1041.0
20260503202339 19 198 3.2 9.7 0.00 0.03 0.03 42 1041.3
20260503201837 20 193 1.6 4.8 0.00 0.03 0.03 43 1041.3
20260503201334 19 254 8.0 11.3 0.00 0.03 0.03 41 1041.4
20260503200832 20 196 4.8 11.3 0.00 0.03 0.03 41 1041.4
20260503200327 19 230 1.6 11.3 0.00 0.03 0.03 41 1041.6
20260503195825 19 206 8.0 11.3 0.00 0.03 0.03 41 1041.6
20260503195321 18 272 3.2 12.9 0.00 0.03 0.03 44 1041.9
20260503194819 19 136 4.8 9.7 0.00 0.03 0.03 44 1042.0
20260503194314 18 212 1.6 11.3 0.00 0.03 0.03 46 1042.0
20260503193810 18 195 4.8 16.1 0.00 0.03 0.03 41 1042.3
20260503193307 18 167 1.6 9.7 0.00 0.03 0.03 42 1042.1
20260503192803 18 174 3.2 8.0 0.00 0.03 0.03 42 1042.4
20260503192258 18 184 3.2 8.0 0.00 0.03 0.03 40 1042.2
20260503191754 18 148 3.2 9.7 0.00 0.03 0.03 43 1042.4
20260503191252 17 180 6.4 11.3 0.00 0.03 0.03 43 1042.6
20260503190748 17 237 4.8 9.7 0.00 0.03 0.03 43 1042.7
20260503190245 17 220 8.0 12.9 0.00 0.03 0.03 44 1042.5
20260503185742 18 198 4.8 9.7 0.00 0.03 0.03 40 1042.7
20260503185237 18 214 8.0 12.9 0.00 0.03 0.03 45 1042.7
20260503184727 17 165 3.2 9.7 0.00 0.03 0.03 45 1042.7
20260503184224 17 209 3.2 4.8 0.00 0.03 0.03 46 1043.1
20260503183720 18 206 4.8 11.3 0.00 0.03 0.03 44 1043.1
20260503183217 17 170 3.2 8.0 0.00 0.03 0.03 49 1043.1
20260503182715 17 162 6.4 9.7 0.00 0.03 0.03 46 1043.1
20260503182213 17 211 4.8 8.0 0.00 0.03 0.03 49 1043.2
20260503181709 17 149 3.2 8.0 0.00 0.03 0.03 49 1043.4
20260503181207 17 250 8.0 11.3 0.00 0.03 0.03 49 1043.4
20260503180703 17 189 1.6 9.7 0.00 0.03 0.03 48 1043.4
20260503180202 17 193 4.8 12.9 0.00 0.03 0.03 45 1043.4
20260503175658 16 187 1.6 8.0 0.00 0.03 0.03 50 1043.4
20260503175156 16 234 1.6 4.8 0.00 0.03 0.03 44 1043.6
20260503174651 16 229 4.8 8.0 0.00 0.03 0.03 43 1043.7
20260503174149 17 237 4.8 4.8 0.00 0.03 0.03 48 1043.8
20260503173644 16 252 3.2 11.3 0.00 0.03 0.03 49 1043.8
20260503173141 16 194 3.2 8.0 0.00 0.03 0.03 45 1043.9
20260503172638 16 154 0.0 8.0 0.00 0.03 0.03 45 1044.0
20260503172135 16 12 4.8 8.0 0.00 0.03 0.03 43 1044.1
20260503171631 16 236 4.8 8.0 0.00 0.03 0.03 44 1043.9
20260503171129 16 166 3.2 3.2 0.00 0.03 0.03 47 1044.0
20260503170626 15 192 0.0 4.8 0.00 0.03 0.03 45 1044.3
20260503170123 15 209 3.2 4.8 0.00 0.03 0.03 46 1044.3
20260503151012 12 169 3.2 4.8 0.00 0.03 0.03 72 1045.3
20260503150508 12 144 6.4 8.0 0.00 0.03 0.03 72 1045.3
20260503131356 6 144 1.6 3.2 0.00 0.03 0.03 99 1045.2
20260503130853 6 165 3.2 4.8 0.00 0.03 0.03 99 1045.0
20260503130350 6 153 1.6 3.2 0.00 0.03 0.03 99 1045.0
20260503110738 1 184 0.0 0.0 0.00 0.03 0.03 99 1043.9
20260503110236 1 179 0.0 0.0 0.00 0.03 0.03 99 1044.0
20260503100201 1 183 0.0 0.0 0.00 0.00 0.00 99 1043.5
20260503090121 3 184 0.0 0.0 0.00 0.00 0.00 99 1043.6
20260503081556 3 183 0.0 0.0 0.00 0.00 0.00 99 1043.4
20260503081053 2 183 0.0 0.0 0.00 0.00 0.00 99 1043.2
20260503080549 3 183 0.0 0.0 0.00 0.00 0.00 99 1043.2
20260503072523 3 183 0.0 0.0 0.00 0.00 0.00 99 1043.2
20260503072020 3 183 0.0 0.0 0.00 0.00 0.00 99 1043.1
20260503071517 3 183 0.0 0.0 0.00 0.00 0.00 99 1043.2
20260503071014 3 183 0.0 0.0 0.00 0.00 0.00 99 1043.1
20260503070510 3 184 0.0 0.0 0.00 0.00 0.00 99 1042.9
20260503054929 3 187 0.0 0.0 0.00 0.00 0.00 98 1042.8
20260503054425 3 187 0.0 0.0 0.00 0.00 0.00 98 1043.2
20260503053923 4 187 0.0 0.0 0.00 0.00 0.00 98 1042.9
20260503053421 4 186 0.0 0.0 0.00 0.00 0.00 98 1043.1
20260503052916 4 187 0.0 0.0 0.00 0.00 0.00 98 1042.9
20260503052414 4 186 0.0 0.0 0.00 0.00 0.00 98 1043.1
20260503051910 5 187 0.0 0.0 0.00 0.00 0.00 98 1043.2
20260503051406 5 187 0.0 0.0 0.00 0.00 0.00 98 1042.8
20260503050904 5 187 0.0 0.0 0.00 0.00 0.00 98 1042.7
20260503050359 5 187 0.0 0.0 0.00 0.00 0.00 98 1042.8
20260503045857 5 187 0.0 0.0 0.00 0.03 0.03 97 1042.8
20260503045354 5 187 0.0 0.0 0.00 0.03 0.03 97 1042.6
20260503044851 5 187 0.0 0.0 0.00 0.03 0.03 97 1042.7
20260503044348 5 187 0.0 0.0 0.00 0.03 0.03 97 1042.6
20260503043845 5 188 0.0 0.0 0.00 0.03 0.03 97 1042.6
20260503043342 5 188 0.0 0.0 0.00 0.03 0.03 97 1042.6
20260503042838 5 188 0.0 0.0 0.00 0.03 0.03 97 1042.7
20260503042335 5 188 0.0 0.0 0.00 0.03 0.03 97 1042.5